Погода в Ивантеево

Россия / Новгородская область     57°47′38″N   33°08′45″E
темп.,
°C
ветер,
м/с
пор.,
м/с
влажн.,
%
обл.,
%
осадки,
мм/ч
давл.,
гПа
погр.,
м
24 сентября, пт
пт2400:00+6ююв4108991 0.0 1005693
03:00+4ююв41191100 0.0 1002676
06:00+5юв51188100 0.0 1000890
09:00+6юв5128477 0.0 999854
12:00+6юв51183100 0.0 9991013
15:00+6юв51093100 0.4 10001008
18:00+6юв4992100 0.0 1001987
21:00+6юв41094100 0.3 1002776
25 сентября, сб
сб2500:00+7юв3994100 0.1 1003600
03:00+7юв3995100 0.1 1003551
06:00+7ююв3996100 0.2 1002581
09:00+7ю4997100 0.4 1002641
12:00+8ю4996100 0.4 1002597
15:00+8ююз41096100 1.8 1001747
18:00+8ююз2798100 1.3 1002472
21:00+8зюз2699100 4.9 1003378
26 сентября, вс
вс2600:00+8сз4998100 2.3 1004576
03:00+7зсз4997100 2.6 1007587
06:00+7зсз41198100 0.0 1009627
09:00+7зсз41096100 0.1 1010635
12:00+8сз51092100 0.2 1012830
15:00+8ссз51092100 1.2 10151096
18:00+8ссз41092100 0.3 1017763
21:00+7ссз499597 0.3 1019516
27 сентября, пн
пн2700:00+7ссз3897100 0.0 1021493
03:00+7с2798100 0.0 1023413
06:00+7с2798100 0.0 1025334
09:00+8ссв269462 0.0 1026317
12:00+11св347970 0.0 1027742
15:00+12св3466100 0.1 10271205
18:00+10св3774100 0.0 1028389
21:00+8св2779100 0.1 1030261
28 сентября, вт
вт2800:00+7св278698 0.1 1030290
03:00+5св239811 0.1 103281
06:00+6всв2594100 0.0 1032196
09:00+8всв2591100 0.0 1032296
12:00+9всв2481100 0.0 1033527
15:00+11всв226573 0.0 10331067
18:00+9всв237799 0.0 103384
21:00+8в247997 0.0 1034114